Regional Weather Roundup
Issued by NWS

Home | Current Version | Previous Version | Graphics & Text | Print | Product List | Glossary On
Versions: 1 2 3 4 5 6 7 8 9 10 11 12 13 14 15 16 17 18 19 20 21 22 23 24 25 26 27 28 29 30 31 32 33 34 35 36 37 38 39 40 41 42 43 44 45 46 47 48 49 50
000
ASUS43 KOAX 281010
RWRNE

WEATHER ROUNDUP FOR NEBRASKA
NATIONAL WEATHER SERVICE OMAHA NE
500 AM CDT SAT MAY 28 2016

NOTES: SATELLITE DATA IS BEING USED TO AUGMENT CLOUD COVER ABOVE
       12000 FEET.
       "FAIR" INDICATES FEW OR NO CLOUDS BELOW 12,000 FEET WITH NO
       SIGNIFICANT WEATHER AND/OR OBSTRUCTIONS TO VISIBILITY.

  * THESE STATIONS DO NOT REPORT WEATHER SUCH AS RAIN...SNOW OR FOG.

NEZ001>004-019>022-054>056-281100-
NEBRASKA PANHANDLE

CITY           SKY/WX    TMP DP  RH WIND       PRES   REMARKS
SCOTTSBLUFF    CLEAR     41  39  93 N6        29.91S
ALLIANCE       CLEAR     37  36  96 SW3       29.89R FOG
CHADRON        CLEAR     41  39  93 CALM      29.89R
KIMBALL        CLEAR     38  37  97 W7        29.94S WCI  32
SIDNEY         CLEAR     39  38  96 W7        29.92R WCI  34
$$

NEZ057>060-069>072-079>082-281100-
SOUTHWEST NEBRASKA

CITY           SKY/WX    TMP DP  RH WIND       PRES   REMARKS
NORTH PLATTE   PTCLDY    50  49  96 NW3       29.85R
IMPERIAL       CLEAR     49  46  90 MISG      29.88R
LEXINGTON      CLOUDY    55  53  94 W6        29.81S
MCCOOK         CLOUDY    54  52  93 N7        29.83R
OGALLALA       CLEAR     48  45  91 SW5       29.88R
$$

NEZ005>010-023>029-035>040-094-281100-
NORTH CENTRAL NEBRASKA

CITY           SKY/WX    TMP DP  RH WIND       PRES   REMARKS
VALENTINE      MOCLDY    52  49  89 NW9       29.83R
AINSWORTH      CLOUDY    54  52  92 W6        29.81S
BROKEN BOW     LGT RAIN  55  54  96 W9        29.81R
O`NEILL        RAIN      57  56  96 W3        29.77F
ORD            RAIN      56  54  93 W13       29.77R
THEDFORD       PTCLDY    51  49  93 W5        29.84S
$$

NEZ041-046>049-061>064-073>077-083>087-281100-
SOUTH CENTRAL NEBRASKA

CITY           SKY/WX    TMP DP  RH WIND       PRES   REMARKS
GRAND ISLAND   PTCLDY    55  53  93 W7        29.75F
AURORA         CLOUDY    56  56  97 W6        29.74F
HASTINGS       CLOUDY    56  53  90 N6        29.75F
HEBRON         MOCLDY    56  55  97 CALM      29.76S
HOLDREGE       CLOUDY    55  54  94 NW3       29.78S
KEARNEY *      CLOUDY    55  54  94 NW7       29.77S
YORK           CLOUDY    57  55  94 W8        29.75F
$$

NEZ011>018-030>034-042>045-281100-
NORTHEAST NEBRASKA

CITY           SKY/WX    TMP DP  RH WIND       PRES   REMARKS
NORFOLK        LGT RAIN  59  55  87 N6        29.70S
ALBION         RAIN      56  55  94 W12       29.73R
BLAIR          CLOUDY    61  60  97 S8        29.73R FOG
FREMONT        CLOUDY    59  57  94 SW7       29.74R
TEKAMAH        CLOUDY    61  59  93 S8        29.72R
WAYNE          CLOUDY    61  59  94 SE9G17    29.72R
$$

NEZ050>053-065>068-078-088>093-281100-
SOUTHEAST NEBRASKA

CITY           SKY/WX    TMP DP  RH WIND       PRES   REMARKS
LINCOLN        CLOUDY    58  56  93 W3        29.75S
OMAHA EPPLEY   CLOUDY    63  59  87 S10       29.73R
BEATRICE       MOCLDY    58  57  96 CALM      29.74F
FALLS CITY     CLOUDY    59  57  93 SE7       29.73S
NEBRASKA CITY  CLOUDY    59  59 100 S6        29.75R
PLATTSMOUTH    CLOUDY    62  61  98 S7        29.74R
$$

NEZ044-045-051>053-067-281100-
OMAHA AREA

CITY           SKY/WX    TMP DP  RH WIND       PRES   REMARKS
OMAHA EPPLEY   CLOUDY    63  59  87 S10       29.73R
BLAIR          CLOUDY    61  60  97 S8        29.73R FOG
FREMONT        CLOUDY    59  57  94 SW7       29.74R
MILLARD        CLOUDY    62  60  92 S5        29.74R
OFFUTT AFB     CLOUDY    61  61 100 S5        29.73R
PLATTSMOUTH    CLOUDY    62  61  98 S7        29.74R
WAHOO          CLOUDY    60  56  88 SW9       29.74R
$$




USA.gov is the U.S. government's official web portal to all federal, state and local government web resources and services.